User: anonymous   Login
Location: Starry Hill Observatory
(46.8582°N, 122.3590°W)
Time: 21:57:02
(UTC-07:00)
Language:

Cosmos 1300 Rocket - Orbit

View from above orbital plane
View from above orbital plane
View from above satellite
View from above satellite

Ground track
Ground track

The orbit data is extracted from the following two-line orbital elements,

1 12786U 81082B   16238.39537289  .00000080  00000-0  66200-5 0  9996
2 12786  82.4861 246.4681 0018436 147.1085 213.1282 14.84632887890922
Epoch (UTC): 25 August 2016 09:29:20
Eccentricity: 0.0018436
inclination: 82.4861°
perigee height: 602 km
apogee height: 627 km
right ascension of ascending node: 246.4681°
argument of perigee: 147.1085°
revolutions per day: 14.84632887
mean anomaly at epoch: 213.1282°
orbit number at epoch: 89092

The dashed part of the orbit path shows where the satellite is in the earth's shadow,  

DLR